| time (UTC) | temp C | wind direction | speed KPH | gust KPH | rain 1hr cm | rain 24hr cm | rain mn cm | humidity % | barometer mb |
| 20260504050517 | 12 | 192 | 3.2 | 11.3 | 0.00 | 0.05 | 0.00 | 68 | 1012.2 |
| 20260504045517 | 13 | 280 | 0.0 | 4.8 | 0.00 | 0.05 | 0.00 | 68 | 1012.3 |
| 20260504044641 | 13 | 194 | 3.2 | 8.0 | 0.00 | 0.05 | 0.00 | 67 | 1012.4 |
| 20260504043521 | 13 | 177 | 4.8 | 9.7 | 0.00 | 0.05 | 0.00 | 68 | 1012.4 |
| 20260504042521 | 13 | 179 | 3.2 | 8.0 | 0.00 | 0.05 | 0.00 | 67 | 1012.4 |
| 20260504041517 | 13 | 195 | 3.2 | 9.7 | 0.00 | 0.05 | 0.00 | 66 | 1012.5 |
| 20260504040518 | 13 | 184 | 3.2 | 9.7 | 0.00 | 0.05 | 0.00 | 66 | 1012.6 |
| 20260504035518 | 13 | 182 | 4.8 | 12.9 | 0.00 | 0.05 | 0.05 | 66 | 1012.6 |
| 20260504034519 | 13 | 184 | 4.8 | 14.5 | 0.00 | 0.05 | 0.05 | 66 | 1012.8 |
| 20260504033519 | 13 | 177 | 4.8 | 16.1 | 0.00 | 0.05 | 0.05 | 67 | 1013.0 |
| 20260504032519 | 13 | 180 | 3.2 | 9.7 | 0.00 | 0.05 | 0.05 | 66 | 1013.1 |
| 20260504031519 | 14 | 184 | 4.8 | 11.3 | 0.00 | 0.05 | 0.05 | 65 | 1013.1 |
| 20260504030519 | 14 | 188 | 4.8 | 11.3 | 0.00 | 0.05 | 0.05 | 65 | 1013.1 |
| 20260504025540 | 14 | 179 | 8.0 | 14.5 | 0.00 | 0.05 | 0.05 | 65 | 1013.0 |
| 20260504024520 | 14 | 181 | 8.0 | 14.5 | 0.00 | 0.05 | 0.05 | 64 | 1013.0 |
| 20260504023520 | 14 | 181 | 6.4 | 14.5 | 0.00 | 0.05 | 0.05 | 64 | 1013.0 |
| 20260504022520 | 14 | 179 | 6.4 | 12.9 | 0.00 | 0.05 | 0.05 | 65 | 1013.1 |
| 20260504021520 | 14 | 185 | 6.4 | 11.3 | 0.00 | 0.05 | 0.05 | 65 | 1013.2 |
| 20260504020537 | 14 | 186 | 3.2 | 9.7 | 0.00 | 0.05 | 0.05 | 65 | 1013.2 |
| 20260504015520 | 14 | 181 | 4.8 | 9.7 | 0.00 | 0.05 | 0.05 | 65 | 1013.1 |
| 20260504014520 | 15 | 188 | 3.2 | 8.0 | 0.00 | 0.05 | 0.05 | 65 | 1013.2 |
| 20260504013521 | 15 | 177 | 6.4 | 11.3 | 0.00 | 0.05 | 0.05 | 64 | 1013.1 |
| 20260504012538 | 15 | 174 | 4.8 | 9.7 | 0.00 | 0.05 | 0.05 | 63 | 1013.2 |
| 20260504011518 | 15 | 173 | 3.2 | 6.4 | 0.00 | 0.05 | 0.05 | 64 | 1013.6 |
| 20260504010518 | 15 | 169 | 3.2 | 8.0 | 0.00 | 0.05 | 0.05 | 63 | 1013.6 |
| 20260504005521 | 15 | 164 | 3.2 | 6.4 | 0.00 | 0.05 | 0.05 | 62 | 1013.6 |
| 20260504004538 | 15 | 170 | 1.6 | 8.0 | 0.00 | 0.05 | 0.05 | 63 | 1013.7 |
| 20260504003538 | 15 | 156 | 1.6 | 4.8 | 0.00 | 0.05 | 0.05 | 62 | 1013.8 |
| 20260504002519 | 16 | 42 | 0.0 | 3.2 | 0.00 | 0.05 | 0.05 | 62 | 1013.8 |
| 20260504001519 | 16 | 222 | 1.6 | 6.4 | 0.00 | 0.05 | 0.05 | 60 | 1013.8 |
| 20260504000539 | 16 | 218 | 1.6 | 6.4 | 0.00 | 0.05 | 0.05 | 60 | 1013.8 |
| 20260503235539 | 16 | 212 | 3.2 | 11.3 | 0.00 | 0.05 | 0.05 | 59 | 1013.6 |
| 20260503234520 | 16 | 249 | 3.2 | 9.7 | 0.00 | 0.05 | 0.05 | 59 | 1013.5 |
| 20260503233520 | 16 | 222 | 3.2 | 11.3 | 0.00 | 0.05 | 0.05 | 59 | 1013.2 |
| 20260503232520 | 17 | 210 | 4.8 | 12.9 | 0.00 | 0.05 | 0.05 | 58 | 1013.1 |
| 20260503231517 | 17 | 206 | 4.8 | 11.3 | 0.00 | 0.05 | 0.05 | 58 | 1013.2 |
| 20260503230540 | 17 | 209 | 4.8 | 11.3 | 0.00 | 0.05 | 0.05 | 57 | 1013.3 |
| 20260503225520 | 17 | 242 | 3.2 | 9.7 | 0.00 | 0.05 | 0.05 | 57 | 1013.4 |
| 20260503224520 | 17 | 240 | 4.8 | 11.3 | 0.00 | 0.05 | 0.05 | 57 | 1013.5 |
| 20260503223538 | 17 | 177 | 6.4 | 16.1 | 0.00 | 0.05 | 0.05 | 57 | 1013.5 |
| 20260503222538 | 17 | 212 | 6.4 | 17.7 | 0.00 | 0.05 | 0.05 | 58 | 1013.5 |
| 20260503221518 | 16 | 177 | 6.4 | 19.3 | 0.00 | 0.05 | 0.05 | 58 | 1013.8 |
| 20260503220521 | 16 | 238 | 4.8 | 11.3 | 0.00 | 0.05 | 0.05 | 57 | 1013.8 |
| 20260503215518 | 16 | 186 | 6.4 | 17.7 | 0.00 | 0.05 | 0.05 | 57 | 1014.1 |
| 20260503214518 | 16 | 194 | 8.0 | 14.5 | 0.00 | 0.05 | 0.05 | 57 | 1014.5 |
| 20260503213519 | 16 | 173 | 8.0 | 19.3 | 0.00 | 0.05 | 0.05 | 57 | 1014.6 |
| 20260503212539 | 16 | 184 | 8.0 | 24.1 | 0.00 | 0.05 | 0.05 | 57 | 1014.6 |
| 20260503211519 | 16 | 206 | 6.4 | 22.5 | 0.00 | 0.05 | 0.05 | 56 | 1015.0 |
| 20260503210539 | 17 | 247 | 6.4 | 11.3 | 0.00 | 0.05 | 0.05 | 56 | 1015.4 |
| 20260503205519 | 16 | 253 | 4.8 | 12.9 | 0.00 | 0.05 | 0.05 | 57 | 1015.7 |
| 20260503204520 | 16 | 222 | 6.4 | 17.7 | 0.00 | 0.05 | 0.05 | 56 | 1015.9 |
| 20260503203520 | 17 | 239 | 4.8 | 11.3 | 0.00 | 0.05 | 0.05 | 56 | 1016.0 |
| 20260503202520 | 16 | 208 | 8.0 | 17.7 | 0.00 | 0.05 | 0.05 | 56 | 1015.6 |
| 20260503201517 | 16 | 220 | 6.4 | 22.5 | 0.00 | 0.05 | 0.05 | 56 | 1016.0 |
| 20260503200541 | 16 | 192 | 4.8 | 17.7 | 0.00 | 0.05 | 0.05 | 56 | 1016.0 |
| 20260503195520 | 16 | 245 | 6.4 | 11.3 | 0.00 | 0.05 | 0.05 | 55 | 1016.4 |
| 20260503194521 | 16 | 255 | 6.4 | 11.3 | 0.00 | 0.05 | 0.05 | 55 | 1016.4 |
| 20260503193518 | 16 | 232 | 6.4 | 14.5 | 0.00 | 0.05 | 0.05 | 56 | 1016.5 |
| 20260503192518 | 16 | 194 | 8.0 | 16.1 | 0.00 | 0.05 | 0.05 | 56 | 1016.9 |
| 20260503191541 | 16 | 230 | 8.0 | 19.3 | 0.00 | 0.05 | 0.05 | 56 | 1017.0 |
| 20260503190518 | 16 | 247 | 6.4 | 14.5 | 0.00 | 0.05 | 0.05 | 56 | 1017.2 |
| 20260503185518 | 16 | 238 | 6.4 | 17.7 | 0.00 | 0.05 | 0.05 | 55 | 1017.3 |
| 20260503184518 | 16 | 193 | 6.4 | 19.3 | 0.00 | 0.05 | 0.05 | 56 | 1017.7 |
| 20260503183519 | 15 | 198 | 8.0 | 14.5 | 0.00 | 0.05 | 0.05 | 57 | 1017.9 |
| 20260503182519 | 15 | 229 | 6.4 | 17.7 | 0.00 | 0.05 | 0.05 | 57 | 1018.2 |
| 20260503181519 | 15 | 178 | 9.7 | 22.5 | 0.00 | 0.05 | 0.05 | 57 | 1018.3 |
| 20260503180519 | 15 | 199 | 8.0 | 19.3 | 0.00 | 0.05 | 0.05 | 58 | 1018.5 |
| 20260503175519 | 15 | 188 | 9.7 | 20.9 | 0.00 | 0.05 | 0.05 | 56 | 1018.8 |
| 20260503174520 | 15 | 183 | 6.4 | 19.3 | 0.00 | 0.05 | 0.05 | 56 | 1018.8 |
| 20260503173517 | 15 | 245 | 8.0 | 14.5 | 0.00 | 0.05 | 0.05 | 56 | 1019.0 |
| 20260503172540 | 15 | 177 | 8.0 | 19.3 | 0.00 | 0.05 | 0.05 | 56 | 1019.0 |
| 20260503171520 | 15 | 186 | 6.4 | 12.9 | 0.00 | 0.05 | 0.05 | 56 | 1019.2 |
| 20260503170520 | 15 | 183 | 9.7 | 19.3 | 0.00 | 0.05 | 0.05 | 56 | 1019.3 |
| 20260503150519 | 12 | 181 | 4.8 | 14.5 | 0.00 | 0.05 | 0.05 | 60 | 1020.8 |
| 20260503130538 | 7 | 255 | 3.2 | 6.4 | 0.00 | 0.05 | 0.05 | 76 | 1021.1 |
| 20260503110526 | 0 | 264 | 0.0 | 1.6 | 0.05 | 0.08 | 0.05 | 99 | 1020.1 |
| 20260503081529 | 1 | 295 | 0.0 | 0.0 | 0.00 | 0.05 | 0.00 | 98 | 1019.8 |
| 20260503080548 | 1 | 276 | 0.0 | 0.0 | 0.00 | 0.05 | 0.00 | 98 | 1019.8 |
| 20260503072529 | 1 | 277 | 0.0 | 0.0 | 0.00 | 0.05 | 0.00 | 98 | 1019.7 |
| 20260503071518 | 1 | 288 | 0.0 | 1.6 | 0.00 | 0.05 | 0.00 | 97 | 1019.8 |
| 20260503070518 | 1 | 246 | 0.0 | 0.0 | 0.00 | 0.05 | 0.00 | 97 | 1019.9 |